Simultaneous Nadir Overpasses (SNOs) Predictions

Prediction of SNOs between GOES-14 and NPP Satellite Orbit:

Table of predicted SNOs for the next 14.0 days since TLE Epoch: 4/13/2024
Index Date Time (GOES-14) GOES-14 Lat,Lon NPP Lat,Lon Distance(km) Time Diff (sec)
1 04/13/2024 08:58:51 0.17,-108.55 1.12,-112.91 496.25 80
2 04/14/2024 08:37:27 0.18,-108.55 0.12,-108.38 20.14 80
3 04/16/2024 20:40:39 -0.18,-108.57 -0.34,-109.15 66.76 80
4 04/17/2024 20:24:34 -0.19,-108.58 0.67,-104.62 450.30 80
5 04/19/2024 08:46:22 0.18,-108.58 0.47,-109.90 150.67 80
6 04/20/2024 08:24:58 0.19,-108.58 -0.54,-105.37 366.05 80
7 04/21/2024 20:46:54 -0.18,-108.59 -0.68,-110.67 237.51 80
8 04/22/2024 20:30:50 -0.18,-108.60 0.34,-106.14 279.65 80
9 04/24/2024 08:52:38 0.17,-108.61 0.80,-111.42 320.75 80
10 04/25/2024 08:31:14 0.18,-108.61 -0.22,-106.89 195.74 80
11 04/26/2024 20:53:10 -0.17,-108.61 -0.98,-112.20 409.26 80
